[[{"header":{"parameterUnit":"m.s-1","parameterCategory":1,"la1":30.2991,"la2":30.254,"lo1":-89.0895,"lo2":-89.0444,"dy":0.0017,"dx":0.0017,"nx":28,"ny":28,"refTime":"2024-03-11T09:00:00:Z","depth":0,"parameterNumber":2,"parameterNumberName":"U-component_of_WINDS"},"data":[0,0,0,0,0,0,0,0,0,0,0,0,0,0,0,0,0,0,0,0,0,0,0,0,0,0,0,0,0,0,0,0,0,0,0,0,0,0,0,0,0,0,0,0,0,0,0,0,0,0,0,0,0,0,0,0,0,0,0.0698,0.0698,0,0.0697,0.0697,0.0697,0.0697,0.0697,0.0697,0.0697,0.0696,0.0696,0.0696,0,0,0,0,0,0,0,0,0,0,0,0,0,0.0697,0.0697,0.0698,0.0698,0.0698,0.0697,0.0697,0.0697,0.0697,0.0697,0.0697,0.0697,0.0696,0.0696,0.0696,0,0,0,0,0,0,0,0,0,0,0,0,0,0.0697,0.0697,0.0698,0.0698,0.0698,0.0697,0.0697,0.0697,0.0697,0.0697,0.0697,0.0697,0.0696,0.0696,0.0696,0.0695,0,0,0.0695,0.0695,0,0,0,0,0,0,0,0,0.0697,0.0697,0.0698,0.0698,0.0698,0.0697,0.0696,0.0696,0.0697,0.0697,0.0697,0.0697,0.0696,0.0696,0.0696,0.0695,0.0695,0.0695,0.0695,0.0695,0.0695,0,0,0,0,0,0,0,0.0697,0.0697,0.0698,0.0698,0.0698,0.0697,0.0697,0.0696,0.0697,0.0697,0.0697,0.0697,0.0696,0.0696,0.0696,0.0695,0.0695,0.0695,0.0695,0.0695,0.0691,0.0691,0,0,0,0,0,0,0.0697,0.0697,0.0698,0.0697,0.0697,0.0697,0.0697,0.0697,0.0697,0.0697,0.0697,0.0697,0.0696,0.0696,0.0696,0.0694,0.0695,0.0695,0.0695,0.0691,0.0691,0.0691,0,0,0,0,0,0,0.0697,0.0697,0.0698,0.0697,0.0697,0.0697,0.0697,0.0697,0.0697,0.0697,0.0697,0.0697,0.0696,0.0696,0.0695,0.0694,0.0695,0.0695,0.0691,0.0691,0.0691,0.069,0,0,0,0,0,0,0.0697,0.0697,0.0697,0.0697,0.0697,0.0697,0.0697,0.0697,0.0697,0.0697,0.0697,0.0696,0.0696,0.0695,0.0695,0.0694,0.0695,0.0691,0.0691,0.0691,0.069,0.069,0.069,0,0,0,0,0,0.0697,0.0697,0.0697,0.0697,0.0698,0.0697,0.0697,0.0697,0.0697,0.0697,0.0696,0.0697,0.0694,0.0695,0.0695,0.0694,0.0691,0.0691,0.0691,0.069,0.069,0.069,0,0,0,0,0,0,0.0697,0.0697,0.0697,0.0698,0.0697,0.0697,0.0697,0.0697,0.0696,0.0696,0.0696,0.0696,0.0694,0.0694,0.0695,0.0692,0.0693,0.0692,0.0692,0.0692,0.0692,0.0692,0.0695,0,0,0,0,0,0.0698,0.0698,0.0697,0.0698,0.0697,0.0697,0.0697,0.0697,0.0696,0.0696,0.0695,0.0695,0.0693,0.0693,0.0692,0.069,0.0689,0.0689,0.0689,0.0689,0.0689,0.0686,0.0686,0.069,0.069,0.069,0,0,0.0698,0.0698,0.0698,0.0698,0.0697,0.0697,0.0697,0.0697,0.0696,0.0696,0.0695,0.0694,0.0693,0.0691,0.069,0.0691,0.0687,0.0689,0.0689,0.0688,0.0686,0.0686,0.0685,0.069,0.069,0.069,0,0,0.0698,0.0698,0.0698,0.0697,0.0697,0.0696,0.0696,0.0696,0.0695,0.0694,0.0694,0.0692,0.0691,0.0689,0.0689,0.0687,0.0686,0.0686,0.0685,0.0683,0.0683,0.0682,0.0681,0.068,0.0686,0.0686,0.0686,0,0.0698,0.0698,0.0698,0.0697,0.0696,0.0696,0.0695,0.0695,0.0694,0.0693,0.0693,0.069,0.069,0.0687,0.0686,0.0686,0.0685,0.0686,0.0683,0.0682,0.0682,0.068,0.068,0.0686,0.0686,0.0686,0.0686,0,0.0697,0.0697,0.0697,0.0696,0.0695,0.0694,0.0693,0.0692,0.0692,0.0691,0.0689,0.0688,0.0686,0.0686,0.0685,0.0683,0.0683,0.0683,0.0684,0.0682,0.068,0.068,0.0686,0.0686,0.0686,0.0686,0,0,0.0698,0.0697,0.0696,0.0695,0.0694,0.0693,0.0692,0.069,0.0689,0.0688,0.0686,0.0684,0.0684,0.0683,0.0682,0.0681,0.0678,0.0681,0.0681,0.068,0.0673,0.0673,0.0672,0.0677,0.0677,0.0677,0.0673,0,0.0698,0.0696,0.0695,0.0693,0.0692,0.0691,0.069,0.0688,0.0687,0.0685,0.0684,0.0682,0.0683,0.0682,0.068,0.0678,0.0676,0.0679,0.0675,0.0675,0.0675,0.0671,0.0671,0.0667,0.0672,0.0672,0.0672,0,0.0697,0.0696,0.0694,0.0691,0.0691,0.069,0.0687,0.0686,0.0684,0.0683,0.0681,0.068,0.0678,0.0678,0.0674,0.0676,0.0674,0.0673,0.0673,0.0672,0.0673,0.067,0.0666,0.0665,0.0671,0.0672,0.0672,0,0.0697,0.0695,0.0693,0.0692,0.0689,0.0688,0.0687,0.0685,0.0683,0.0681,0.068,0.0677,0.0676,0.0673,0.0672,0.0673,0.0667,0.0668,0.0666,0.0666,0.0664,0.0664,0.066,0.0664,0.0664,0.0664,0.0664,0,0.0696,0.0695,0.0692,0.0691,0.0689,0.0688,0.0685,0.0684,0.0682,0.068,0.0679,0.0677,0.0674,0.0672,0.067,0.0666,0.0666,0.0664,0.0664,0.0664,0.0664,0.0663,0.0663,0.0664,0.0664,0.0664,0.0664,0,0.0696,0.0694,0.0692,0.0689,0.0689,0.0687,0.0685,0.0683,0.0681,0.0678,0.0678,0.0675,0.0672,0.0669,0.0665,0.0664,0.0659,0.0659,0.066,0.066,0.0657,0.0657,0.0651,0.0649,0.0656,0.0655,0.0655,0,0.0695,0.0694,0.0691,0.0689,0.0688,0.0686,0.0684,0.0682,0.0681,0.0677,0.0675,0.0672,0.0669,0.0663,0.0661,0.0657,0.0656,0.0654,0.0656,0.0656,0.0655,0.0655,0.0655,0.0654,0.0654,0.0654,0.0654,0,0.0694,0.0693,0.0691,0.0688,0.0686,0.0684,0.0681,0.068,0.0678,0.0675,0.0672,0.0669,0.0665,0.0661,0.0657,0.0654,0.0653,0.0653,0.0653,0.0653,0.0653,0.0652,0.0659,0.0654,0.0654,0.0654,0.0654,0.0654,0.0693,0.0691,0.0689,0.0686,0.0684,0.0681,0.0679,0.0677,0.0674,0.067,0.0669,0.0665,0.0661,0.0656,0.0653,0.0649,0.065,0.0649,0.0648,0.0648,0.0647,0.0654,0.0649,0.0649,0.0649,0.0649,0.0649,0,0.0691,0.0689,0.0686,0.0683,0.068,0.068,0.0677,0.0674,0.0671,0.0668,0.0665,0.066,0.0656,0.0652,0.0648,0.0645,0.0644,0.0644,0.0644,0.0643,0.0648,0.0649,0.0645,0.0645,0.0645,0.0645,0.0645,0.0645,0.069,0.0687,0.0685,0.068,0.0678,0.0674,0.0672,0.0669,0.0667,0.0661,0.0658,0.0656,0.0652,0.0647,0.0643,0.0642,0.064,0.0639,0.0638,0.0643,0.0643,0.0643,0.0644,0.0639,0.0639,0.0634,0.0634,0.0634]},{"header":{"parameterUnit":"m.s-1","parameterCategory":1,"la1":30.2991,"la2":30.254,"lo1":-89.0895,"lo2":-89.0444,"dy":0.0017,"dx":0.0017,"nx":28,"ny":28,"refTime":"2024-03-11T09:00:00:Z","depth":0,"parameterNumber":3,"parameterNumberName":"V-component_of_WINDS"},"data":[0,0,0,0,0,0,0,0,0,0,0,0,0,0,0,0,0,0,0,0,0,0,0,0,0,0,0,0,0,0,0,0,0,0,0,0,0,0,0,0,0,0,0,0,0,0,0,0,0,0,0,0,0,0,0,0,0,0,2.8655,2.8655,0,2.8668,2.8668,2.8669,2.8634,2.8633,2.8632,2.8631,2.8643,2.8644,2.8646,0,0,0,0,0,0,0,0,0,0,0,0,0,2.8597,2.8599,2.8655,2.8655,2.8655,2.8668,2.8668,2.8669,2.8635,2.8633,2.8632,2.8631,2.8643,2.8644,2.8646,0,0,0,0,0,0,0,0,0,0,0,0,0,2.8618,2.8599,2.8655,2.864,2.8639,2.8668,2.8668,2.8669,2.8635,2.8633,2.8632,2.863,2.8642,2.8644,2.8646,2.869,0,0,2.8652,2.8653,0,0,0,0,0,0,0,0,2.8617,2.862,2.8642,2.8641,2.864,2.8648,2.8652,2.8676,2.8635,2.8636,2.8631,2.8629,2.8646,2.8647,2.8653,2.8691,2.8691,2.8652,2.8653,2.8654,2.8655,0,0,0,0,0,0,0,2.8615,2.8619,2.866,2.8642,2.8641,2.8632,2.8633,2.8657,2.865,2.8636,2.8634,2.8636,2.8645,2.8652,2.8653,2.8691,2.8652,2.8654,2.8655,2.8656,2.8764,2.8765,0,0,0,0,0,0,2.8616,2.8618,2.866,2.866,2.8624,2.8634,2.8635,2.8647,2.8649,2.8648,2.8637,2.8634,2.8649,2.8651,2.8654,2.8704,2.8654,2.8656,2.8657,2.8762,2.8764,2.8766,0,0,0,0,0,0,2.8615,2.862,2.8659,2.8639,2.8643,2.8637,2.865,2.8648,2.8655,2.865,2.8649,2.8645,2.8648,2.8651,2.8681,2.8704,2.8657,2.8659,2.876,2.8763,2.8765,2.8806,0,0,0,0,0,0,2.8613,2.862,2.8637,2.8639,2.8644,2.8687,2.8652,2.8649,2.8658,2.8654,2.8658,2.8656,2.8647,2.8678,2.8683,2.8706,2.866,2.8758,2.8761,2.8764,2.8802,2.8809,2.8815,0,0,0,0,0,2.8612,2.8648,2.8638,2.8643,2.8666,2.8688,2.8691,2.868,2.866,2.8677,2.8674,2.8656,2.8701,2.8682,2.8687,2.871,2.8757,2.876,2.8764,2.8799,2.8808,2.8815,0,0,0,0,0,0,2.8648,2.8648,2.8637,2.8676,2.8682,2.8683,2.8703,2.8689,2.8701,2.8697,2.8682,2.8683,2.8716,2.8716,2.8695,2.8752,2.8725,2.873,2.875,2.8759,2.8765,2.8763,2.8662,0,0,0,0,0,2.8661,2.868,2.8679,2.8713,2.8717,2.871,2.8719,2.871,2.8716,2.8718,2.8718,2.8724,2.8739,2.8749,2.8763,2.8803,2.8802,2.8822,2.8828,2.8834,2.8837,2.8857,2.8865,2.8779,2.8779,2.8778,0,0,2.8687,2.8689,2.8702,2.872,2.8724,2.8743,2.8712,2.8734,2.8747,2.8721,2.8749,2.8749,2.8755,2.879,2.8805,2.8791,2.8862,2.8839,2.8843,2.8844,2.8862,2.887,2.8877,2.8781,2.8781,2.878,0,0,2.8743,2.8748,2.8776,2.8781,2.8787,2.8783,2.8789,2.8792,2.8791,2.8819,2.8799,2.8815,2.8843,2.8847,2.8853,2.8911,2.8894,2.8916,2.8949,2.8969,2.8975,2.8981,2.9,2.9007,2.892,2.8921,2.8921,0,2.8774,2.8803,2.8792,2.8815,2.8822,2.8801,2.8828,2.8833,2.8844,2.8849,2.8834,2.8867,2.887,2.8904,2.8918,2.8925,2.8931,2.8915,2.8975,2.8981,2.8987,2.9004,2.9012,2.8923,2.8923,2.8922,2.8922,0,2.884,2.886,2.8882,2.8893,2.8903,2.8928,2.892,2.8932,2.8922,2.8919,2.8947,2.8949,2.8963,2.8971,2.8961,2.9004,2.8995,2.8978,2.895,2.8997,2.9014,2.9021,2.8926,2.8926,2.8925,2.8924,0,0,2.8918,2.8923,2.8931,2.8935,2.8941,2.8956,2.898,2.8994,2.9003,2.9012,2.903,2.9054,2.9038,2.9045,2.9036,2.9053,2.9097,2.9034,2.9033,2.9043,2.9141,2.9152,2.916,2.9087,2.9088,2.9089,2.914,0,2.8972,2.9013,2.9004,2.9044,2.9061,2.9041,2.9062,2.9067,2.9065,2.9079,2.9076,2.9092,2.9071,2.9075,2.9091,2.9088,2.9116,2.9084,2.9102,2.9103,2.9099,2.9169,2.9181,2.9229,2.9147,2.9148,2.9149,0,2.904,2.9052,2.9093,2.9096,2.9103,2.9121,2.9132,2.9147,2.9152,2.9149,2.9157,2.9144,2.9167,2.914,2.917,2.9149,2.9156,2.9156,2.9157,2.9157,2.9127,2.9168,2.9244,2.9251,2.9159,2.9158,2.9157,0,2.9091,2.9116,2.9144,2.9149,2.9153,2.9166,2.9168,2.9172,2.9181,2.9191,2.9195,2.9208,2.9214,2.9224,2.9215,2.9197,2.9245,2.9219,2.9242,2.9242,2.9251,2.925,2.9327,2.926,2.926,2.9259,2.9259,0,2.9151,2.9176,2.9167,2.9183,2.9211,2.9201,2.9228,2.9228,2.9232,2.9248,2.9232,2.9247,2.9235,2.9249,2.9242,2.9267,2.9271,2.9268,2.9265,2.9268,2.9268,2.927,2.9266,2.9261,2.9261,2.9261,2.926,0,2.921,2.9205,2.9234,2.9235,2.9236,2.9257,2.9258,2.9273,2.927,2.929,2.9294,2.9288,2.9304,2.9296,2.9313,2.9308,2.9339,2.9334,2.9337,2.9335,2.9358,2.9355,2.9437,2.9446,2.9375,2.9376,2.9376,0,2.9248,2.9267,2.9271,2.9281,2.9284,2.93,2.9308,2.9299,2.9308,2.9316,2.933,2.9344,2.9354,2.938,2.9377,2.9389,2.9382,2.941,2.9383,2.9385,2.9379,2.9377,2.9379,2.9414,2.9415,2.9416,2.9416,0,2.9314,2.9311,2.9324,2.9336,2.9347,2.9356,2.9363,2.9372,2.9363,2.9374,2.939,2.9398,2.9414,2.9428,2.9439,2.944,2.9426,2.9425,2.9431,2.9432,2.9433,2.9431,2.9349,2.9423,2.9422,2.9422,2.9421,2.9421,2.9362,2.9378,2.9383,2.9398,2.9403,2.941,2.9424,2.9423,2.9436,2.9448,2.9442,2.946,2.9464,2.9477,2.948,2.9494,2.9482,2.9491,2.9493,2.9495,2.9497,2.9433,2.9496,2.9496,2.9496,2.9495,2.9495,0,2.9426,2.9428,2.9442,2.9453,2.9465,2.9452,2.946,2.947,2.9486,2.9492,2.9503,2.952,2.9533,2.9532,2.9544,2.9555,2.9548,2.9558,2.9556,2.9556,2.9507,2.95,2.9562,2.9562,2.9562,2.9562,2.9562,2.9562,2.946,2.9485,2.9482,2.9509,2.9511,2.9529,2.9534,2.9541,2.9545,2.9565,2.9576,2.9576,2.9578,2.959,2.9601,2.96,2.9604,2.9616,2.9612,2.9566,2.9559,2.9553,2.9546,2.9617,2.9617,2.966,2.966,2.966]}]]